Location: Newark
(30.1000°N, 109.4667°E)
Time: 22:25:33
(UTC+00:00)

SR - Pass Details

Date: 21 February 2020
Orbit: 578 x 878 km, 66.7° (Epoch: 06 April)

Event Time Altitude Azimuth Distance (km) Brightness Sun altitude
Rises 08:34:30 0° 230° (SW) 3,414 ? 23.5°
Reaches altitude 10° 08:37:13 10° 240° (WSW) 2,503 ? 23.0°
Maximum altitude 08:42:21 31° 302° (WNW) 1,487 ? 22.0°
Drops below altitude 10° 08:47:31 10° 3° (N) 2,519 ? 21.0°
Sets 08:50:17 0° 14° (NNE) 3,440 ? 20.5°
